TimeEDT,TemperatureF,Dew PointF,Humidity,Sea Level PressureIn,VisibilityMPH,Wind Direction,Wind SpeedMPH,Gust SpeedMPH,PrecipitationIn,Events,Conditions,WindDirDegrees,DateUTC
12:05 AM,68.0,66.2,94,29.87,2.5,NE,17.3,24.2,0.01,Rain,Light Rain,50,2013-10-11 04:05:00
12:53 AM,66.9,66.0,97,29.86,2.0,ENE,15.0,21.9,0.02,Rain,Light Rain,60,2013-10-11 04:53:00
1:10 AM,66.2,66.2,100,29.86,3.0,ENE,13.8,21.9,0.01,Rain,Light Rain,60,2013-10-11 05:10:00
1:23 AM,66.2,66.2,100,29.86,2.5,ENE,12.7,23.0,0.01,Rain,Light Rain,70,2013-10-11 05:23:00
1:45 AM,66.2,66.2,100,29.85,4.0,ENE,13.8,20.7,0.01,,Overcast,60,2013-10-11 05:45:00
1:53 AM,66.9,66.9,100,29.85,7.0,ENE,15.0,21.9,0.01,,Overcast,60,2013-10-11 05:53:00
2:53 AM,68.0,66.9,96,29.83,5.0,ENE,13.8,19.6,0.01,,Overcast,70,2013-10-11 06:53:00
3:08 AM,68.0,66.2,94,29.83,2.5,East,9.2,18.4,N/A,,Overcast,80,2013-10-11 07:08:00
3:53 AM,66.9,66.9,100,29.82,2.5,ENE,11.5,20.7,N/A,,Overcast,60,2013-10-11 07:53:00
4:05 AM,68.0,66.2,94,29.83,5.0,ENE,10.4,18.4,N/A,,Overcast,60,2013-10-11 08:05:00
4:53 AM,68.0,66.9,96,29.83,6.0,East,8.1,-,N/A,,Overcast,80,2013-10-11 08:53:00
5:25 AM,68.0,68.0,100,29.83,1.8,East,8.1,-,N/A,,Overcast,80,2013-10-11 09:25:00
5:47 AM,68.0,68.0,100,29.83,3.0,ENE,10.4,-,N/A,,Overcast,70,2013-10-11 09:47:00
5:53 AM,68.0,66.9,96,29.84,5.0,ENE,6.9,-,N/A,,Overcast,70,2013-10-11 09:53:00
6:46 AM,68.0,68.0,100,29.84,10.0,ENE,9.2,-,N/A,,Overcast,60,2013-10-11 10:46:00
6:53 AM,68.0,68.0,100,29.85,10.0,ENE,9.2,-,N/A,,Overcast,60,2013-10-11 10:53:00
7:53 AM,68.0,66.9,96,29.85,7.0,ENE,9.2,-,0.00,,Overcast,60,2013-10-11 11:53:00
8:10 AM,68.0,66.2,94,29.85,10.0,ENE,11.5,-,N/A,,Overcast,60,2013-10-11 12:10:00
8:53 AM,69.1,66.9,93,29.86,6.0,ENE,10.4,-,N/A,,Overcast,60,2013-10-11 12:53:00
9:08 AM,69.8,66.2,88,29.85,6.0,East,17.3,21.9,N/A,,Overcast,80,2013-10-11 13:08:00
9:15 AM,69.8,66.2,88,29.85,6.0,East,12.7,21.9,N/A,,Overcast,80,2013-10-11 13:15:00
9:53 AM,69.1,66.9,93,29.86,6.0,ENE,11.5,20.7,N/A,,Overcast,60,2013-10-11 13:53:00
10:53 AM,69.1,66.9,93,29.87,6.0,North,-9999.0,-,N/A,,Overcast,0,2013-10-11 14:53:00
11:53 AM,69.1,66.9,93,29.87,6.0,East,13.8,20.7,N/A,,Overcast,80,2013-10-11 15:53:00
12:53 PM,69.1,66.9,93,29.86,5.0,East,12.7,18.4,0.00,,Overcast,80,2013-10-11 16:53:00
1:30 PM,68.0,66.2,94,29.86,2.0,ENE,11.5,18.4,0.01,Rain,Light Rain,70,2013-10-11 17:30:00
1:53 PM,68.0,66.9,96,29.85,2.5,East,11.5,-,0.01,,Overcast,80,2013-10-11 17:53:00
2:03 PM,68.0,66.2,94,29.85,2.0,ENE,6.9,-,N/A,,Overcast,70,2013-10-11 18:03:00
2:12 PM,68.0,66.2,94,29.85,1.2,East,9.2,-,0.00,Rain,Light Rain,80,2013-10-11 18:12:00
2:53 PM,68.0,66.9,96,29.85,1.5,East,8.1,-,0.00,,Overcast,80,2013-10-11 18:53:00
3:53 PM,69.1,66.9,93,29.85,0.8,East,6.9,-,0.02,Rain,Light Rain,80,2013-10-11 19:53:00
4:08 PM,69.8,66.2,88,29.85,1.0,East,6.9,-,0.00,Rain,Light Rain,80,2013-10-11 20:08:00
4:53 PM,68.0,66.9,96,29.86,1.5,East,8.1,-,0.02,,Overcast,90,2013-10-11 20:53:00
5:05 PM,68.0,66.2,94,29.85,0.5,East,8.1,-,N/A,Fog,Fog,90,2013-10-11 21:05:00
5:26 PM,68.0,66.2,94,29.85,1.2,East,8.1,-,N/A,,Overcast,80,2013-10-11 21:26:00
5:53 PM,68.0,66.9,96,29.86,1.2,East,9.2,-,N/A,,Overcast,80,2013-10-11 21:53:00
6:34 PM,68.0,66.2,94,29.87,2.5,ENE,10.4,-,0.03,,Overcast,70,2013-10-11 22:34:00
6:41 PM,68.0,66.2,94,29.87,4.0,East,10.4,-,0.03,,Overcast,80,2013-10-11 22:41:00
6:53 PM,68.0,66.9,96,29.88,4.0,East,10.4,-,0.03,,Overcast,80,2013-10-11 22:53:00
7:53 PM,68.0,66.9,96,29.89,5.0,East,10.4,-,N/A,,Overcast,90,2013-10-11 23:53:00
8:12 PM,68.0,66.2,94,29.89,7.0,ENE,8.1,-,N/A,,Overcast,70,2013-10-12 00:12:00
8:53 PM,68.0,66.0,93,29.90,8.0,ENE,10.4,-,N/A,,Overcast,60,2013-10-12 00:53:00
9:07 PM,68.0,66.2,94,29.90,7.0,ENE,9.2,-,N/A,,Overcast,60,2013-10-12 01:07:00
9:17 PM,68.0,66.2,94,29.90,6.0,ENE,6.9,-,N/A,,Overcast,70,2013-10-12 01:17:00
9:38 PM,69.8,66.2,88,29.92,5.0,ENE,15.0,19.6,N/A,,Overcast,60,2013-10-12 01:38:00
9:44 PM,68.0,66.2,94,29.92,2.5,ENE,12.7,19.6,0.00,Rain,Light Rain,60,2013-10-12 01:44:00
9:53 PM,68.0,66.0,93,29.93,2.0,ENE,10.4,18.4,0.01,Rain,Light Rain,60,2013-10-12 01:53:00
10:09 PM,66.2,66.2,100,29.93,4.0,ENE,10.4,-,0.00,Rain,Light Rain,70,2013-10-12 02:09:00
10:53 PM,66.9,64.9,93,29.92,3.0,ENE,15.0,21.9,0.00,,Overcast,60,2013-10-12 02:53:00
11:53 PM,66.9,64.9,93,29.91,1.5,ENE,18.4,29.9,0.11,Rain,Heavy Rain,60,2013-10-12 03:53:00